�������l�o���
Date,Time,MP-1(��Sv/h),MP-2(��Sv/h),MP-3(��Sv/h),MP-4(��Sv/h),MP-5(��Sv/h),MP-6(��Sv/h),MP-7(��Sv/h),����,����(m/s),���J
2023/12/01,00:00,0.151,0.136,0.216,0.205,0.210,0.121,0.079,�k�k��,3.3,��
2023/12/01,00:10,0.151,0.136,0.215,0.206,0.210,0.121,0.078,�k�k��,3.0,��
2023/12/01,00:20,0.150,0.136,0.216,0.204,0.210,0.121,0.079,�k��,2.6,��
2023/12/01,00:30,0.151,0.137,0.216,0.204,0.210,0.121,0.078,�k��,3.4,��
2023/12/01,00:40,0.150,0.137,0.217,0.206,0.209,0.121,0.079,�k�k��,3.7,��
2023/12/01,00:50,0.151,0.136,0.216,0.205,0.210,0.121,0.079,�k�k��,3.7,��
2023/12/01,01:00,0.151,0.136,0.217,0.205,0.210,0.121,0.079,�k�k��,3.4,��
2023/12/01,01:10,0.150,0.136,0.216,0.204,0.211,0.120,0.078,�k�k��,3.3,��
2023/12/01,01:20,0.151,0.136,0.217,0.204,0.211,0.121,0.078,�k,1.7,��
2023/12/01,01:30,0.150,0.136,0.216,0.205,0.211,0.122,0.079,�k�k��,1.3,��
2023/12/01,01:40,0.151,0.136,0.216,0.204,0.210,0.122,0.078,���k��,0.6,��
2023/12/01,01:50,0.151,0.137,0.216,0.204,0.210,0.122,0.079,�k�k��,1.2,��
2023/12/01,02:00,0.150,0.136,0.217,0.206,0.210,0.121,0.078,�k�k��,2.3,��
2023/12/01,02:10,0.151,0.136,0.218,0.204,0.210,0.121,0.079,�k�k��,1.2,��
2023/12/01,02:20,0.151,0.136,0.218,0.204,0.210,0.121,0.078,�k��,0.8,��
2023/12/01,02:30,0.150,0.136,0.216,0.206,0.210,0.121,0.078,���쐼,1.3,��
2023/12/01,02:40,0.152,0.136,0.216,0.206,0.211,0.122,0.078,�쐼,1.4,��
2023/12/01,02:50,0.151,0.136,0.217,0.205,0.210,0.121,0.078,��,1.7,��
2023/12/01,03:00,0.150,0.136,0.216,0.205,0.211,0.121,0.079,��,1.4,��
2023/12/01,03:10,0.151,0.136,0.217,0.204,0.210,0.121,0.079,��,2.1,��
2023/12/01,03:20,0.150,0.136,0.216,0.204,0.209,0.121,0.078,�쐼,2.4,��
2023/12/01,03:30,0.150,0.136,0.217,0.205,0.209,0.121,0.079,���쐼,1.4,��
2023/12/01,03:40,0.151,0.136,0.216,0.205,0.210,0.121,0.078,���쐼,1.8,��
2023/12/01,03:50,0.151,0.136,0.215,0.205,0.209,0.121,0.078,���k��,3.4,��
2023/12/01,04:00,0.150,0.136,0.217,0.204,0.210,0.121,0.078,�k��,3.6,��
2023/12/01,04:10,0.150,0.136,0.216,0.204,0.210,0.122,0.078,�k��,4.0,��
2023/12/01,04:20,0.150,0.136,0.216,0.205,0.210,0.120,0.078,�k��,3.6,��
2023/12/01,04:30,0.150,0.136,0.217,0.204,0.211,0.120,0.079,�k�k��,3.2,��
2023/12/01,04:40,0.151,0.136,0.216,0.205,0.209,0.121,0.078,�k��,3.1,��
2023/12/01,04:50,0.150,0.135,0.218,0.204,0.209,0.120,0.078,�k��,2.3,��
2023/12/01,05:00,0.150,0.136,0.216,0.205,0.209,0.121,0.078,�k��,1.7,��
2023/12/01,05:10,0.151,0.136,0.215,0.204,0.209,0.121,0.078,���k��,2.2,��
2023/12/01,05:20,0.151,0.135,0.215,0.205,0.210,0.121,0.078,�k��,2.4,��
2023/12/01,05:30,0.151,0.137,0.216,0.205,0.209,0.121,0.078,���k��,2.1,��
2023/12/01,05:40,0.150,0.136,0.216,0.205,0.209,0.121,0.078,���k��,2.8,��
2023/12/01,05:50,0.150,0.137,0.216,0.205,0.210,0.121,0.078,���k��,2.7,��
2023/12/01,06:00,0.150,0.136,0.216,0.204,0.209,0.121,0.078,�k��,1.7,��
2023/12/01,06:10,0.151,0.136,0.217,0.204,0.210,0.121,0.078,�k��,1.9,��
2023/12/01,06:20,0.150,0.135,0.216,0.204,0.209,0.120,0.078,�k��,2.3,��
2023/12/01,06:30,0.150,0.137,0.215,0.205,0.210,0.121,0.078,�k��,3.4,��
2023/12/01,06:40,0.151,0.136,0.216,0.205,0.209,0.121,0.079,�k��,4.8,��
2023/12/01,06:50,0.149,0.136,0.216,0.205,0.210,0.121,0.078,�k��,6.1,��
2023/12/01,07:00,0.151,0.136,0.216,0.205,0.211,0.120,0.079,�k��,6.7,��
2023/12/01,07:10,0.151,0.135,0.216,0.204,0.211,0.120,0.078,���k��,7.7,��
2023/12/01,07:20,0.150,0.136,0.215,0.205,0.210,0.120,0.078,���k��,8.8,��
2023/12/01,07:30,0.150,0.136,0.216,0.204,0.209,0.121,0.078,�k��,9.0,��
2023/12/01,07:40,0.150,0.135,0.217,0.204,0.210,0.121,0.078,���k��,9.0,��
2023/12/01,07:50,0.150,0.136,0.216,0.205,0.208,0.121,0.077,���k��,7.9,��
2023/12/01,08:00,0.150,0.136,0.215,0.204,0.209,0.121,0.077,�k��,8.1,��
2023/12/01,08:10,0.150,0.137,0.215,0.204,0.209,0.121,0.078,�k��,8.6,��
2023/12/01,08:20,0.150,0.135,0.216,0.204,0.209,0.120,0.078,���k��,10.0,��
2023/12/01,08:30,0.150,0.136,0.216,0.205,0.210,0.121,0.077,���k��,9.8,��
2023/12/01,08:40,0.151,0.135,0.217,0.204,0.209,0.120,0.079,���k��,9.3,��
2023/12/01,08:50,0.151,0.136,0.216,0.204,0.210,0.121,0.079,���k��,7.1,��
2023/12/01,09:00,0.151,0.136,0.216,0.204,0.211,0.119,0.078,���k��,6.1,��
2023/12/01,09:10,0.151,0.136,0.216,0.204,0.209,0.121,0.077,���k��,4.7,��
2023/12/01,09:20,0.150,0.135,0.215,0.204,0.209,0.121,0.078,���k��,5.0,��
2023/12/01,09:30,0.150,0.136,0.215,0.205,0.211,0.120,0.078,���k��,3.4,��
2023/12/01,09:40,0.151,0.135,0.216,0.203,0.209,0.121,0.076,��,3.2,��
2023/12/01,09:50,0.150,0.136,0.216,0.203,0.209,0.121,0.078,���k��,4.1,��
2023/12/01,10:00,0.150,0.136,0.216,0.205,0.210,0.121,0.078,�k��,5.5,��
2023/12/01,10:10,0.150,0.135,0.215,0.203,0.208,0.121,0.078,���k��,3.7,��
2023/12/01,10:20,0.149,0.135,0.215,0.204,0.210,0.121,0.078,�k��,4.4,��
2023/12/01,10:30,0.149,0.135,0.213,0.204,0.208,0.121,0.077,���k��,4.8,��
2023/12/01,10:40,0.150,0.136,0.214,0.203,0.210,0.121,0.078,���k��,4.7,��
2023/12/01,10:50,0.150,0.136,0.213,0.205,0.209,0.121,0.078,�k��,5.9,��
2023/12/01,11:00,0.150,0.135,0.214,0.203,0.210,0.121,0.078,���k��,6.4,��
2023/12/01,11:10,0.150,0.135,0.215,0.205,0.210,0.121,0.078,�k��,6.7,��
2023/12/01,11:20,0.150,0.135,0.214,0.203,0.210,0.121,0.078,���k��,4.5,��
2023/12/01,11:30,0.150,0.135,0.216,0.204,0.209,0.120,0.078,���k��,4.0,��
2023/12/01,11:40,0.150,0.135,0.213,0.204,0.210,0.121,0.077,���k��,8.2,��
2023/12/01,11:50,0.149,0.135,0.215,0.203,0.210,0.121,0.077,�k��,6.2,��
2023/12/01,12:00,0.150,0.136,0.216,0.205,0.209,0.120,0.077,���k��,5.8,��
2023/12/01,12:10,0.149,0.135,0.214,0.203,0.210,0.120,0.078,�k��,5.3,��
2023/12/01,12:20,0.150,0.135,0.217,0.204,0.209,0.120,0.077,���k��,3.7,��
2023/12/01,12:30,0.149,0.136,0.214,0.204,0.211,0.121,0.078,��,4.2,��
2023/12/01,12:40,0.150,0.135,0.216,0.204,0.209,0.120,0.077,���k��,4.2,��
2023/12/01,12:50,0.150,0.135,0.213,0.204,0.211,0.120,0.078,��,4.1,��
2023/12/01,13:00,0.149,0.136,0.216,0.204,0.210,0.121,0.078,���k��,4.6,��
2023/12/01,13:10,0.149,0.136,0.217,0.204,0.213,0.121,0.078,���k��,4.0,��
2023/12/01,13:20,0.151,0.135,0.216,0.203,0.210,0.121,0.078,���k��,4.4,��
2023/12/01,13:30,0.150,0.136,0.216,0.205,0.211,0.121,0.077,���k��,3.4,��
2023/12/01,13:40,0.150,0.135,0.215,0.204,0.211,0.121,0.078,�k��,2.7,��
2023/12/01,13:50,0.151,0.136,0.217,0.205,0.209,0.120,0.077,���k��,1.9,��
2023/12/01,14:00,0.151,0.136,0.216,0.203,0.209,0.122,0.078,���k��,2.1,��
2023/12/01,14:10,0.151,0.135,0.215,0.205,0.209,0.120,0.077,�k��,1.7,��
2023/12/01,14:20,0.150,0.136,0.215,0.203,0.209,0.117,0.078,�k�k��,1.8,��
2023/12/01,14:30,0.151,0.134,0.217,0.204,0.210,0.117,0.078,�k��,1.9,��
2023/12/01,14:40,0.150,0.137,0.216,0.203,0.211,0.121,0.078,��,2.1,��
2023/12/01,14:50,0.150,0.137,0.216,0.205,0.210,0.120,0.078,���쐼,0.6,��
2023/12/01,15:00,0.150,0.136,0.217,0.204,0.212,0.120,0.078,-,CALM,��
2023/12/01,15:10,0.151,0.136,0.216,0.206,0.211,0.121,0.077,�k��,1.2,��
2023/12/01,15:20,0.150,0.136,0.215,0.205,0.211,0.121,0.078,���k��,1.2,��
2023/12/01,15:30,0.151,0.136,0.216,0.205,0.211,0.121,0.078,-,CALM,��
2023/12/01,15:40,0.150,0.136,0.215,0.205,0.210,0.121,0.078,�k�k��,1.1,��
2023/12/01,15:50,0.151,0.136,0.216,0.204,0.211,0.121,0.077,�k,1.6,��
2023/12/01,16:00,0.152,0.136,0.216,0.206,0.211,0.120,0.079,�k�k��,2.6,��
2023/12/01,16:10,0.152,0.136,0.215,0.206,0.209,0.121,0.078,�k�k��,2.7,��
2023/12/01,16:20,0.150,0.134,0.217,0.206,0.210,0.120,0.078,�k��,3.7,��
2023/12/01,16:30,0.150,0.137,0.215,0.206,0.211,0.121,0.078,�k��,5.0,��
2023/12/01,16:40,0.151,0.137,0.215,0.206,0.212,0.120,0.078,�k��,5.5,��
2023/12/01,16:50,0.150,0.136,0.216,0.205,0.210,0.121,0.078,�k��,5.7,��
2023/12/01,17:00,0.150,0.136,0.215,0.205,0.211,0.121,0.078,�k��,4.9,��
2023/12/01,17:10,0.150,0.136,0.216,0.205,0.210,0.121,0.078,���k��,3.7,��
2023/12/01,17:20,0.150,0.136,0.216,0.206,0.210,0.121,0.079,���k��,3.5,��
2023/12/01,17:30,0.150,0.137,0.216,0.205,0.212,0.121,0.078,�k��,3.2,��
2023/12/01,17:40,0.149,0.136,0.215,0.204,0.210,0.121,0.078,�k,5.4,��
2023/12/01,17:50,0.151,0.136,0.216,0.205,0.209,0.121,0.078,�k,3.9,��
2023/12/01,18:00,0.150,0.136,0.216,0.204,0.210,0.121,0.078,�k,4.3,��
2023/12/01,18:10,0.150,0.136,0.215,0.207,0.210,0.121,0.078,�k,4.4,��
2023/12/01,18:20,0.152,0.136,0.217,0.205,0.210,0.121,0.079,�k,5.6,��
2023/12/01,18:30,0.151,0.136,0.216,0.205,0.211,0.121,0.077,�k�k��,4.7,��
2023/12/01,18:40,0.150,0.137,0.218,0.206,0.210,0.121,0.079,�k�k��,4.2,��
2023/12/01,18:50,0.151,0.136,0.216,0.205,0.210,0.121,0.078,�k�k��,4.0,��
2023/12/01,19:00,0.151,0.136,0.216,0.204,0.211,0.122,0.078,�k�k��,4.5,��
2023/12/01,19:10,0.150,0.137,0.215,0.206,0.210,0.121,0.078,�k�k��,5.0,��
2023/12/01,19:20,0.151,0.136,0.217,0.206,0.210,0.121,0.078,�k�k��,4.7,��
2023/12/01,19:30,0.151,0.136,0.217,0.206,0.210,0.121,0.079,�k�k��,5.3,��
2023/12/01,19:40,0.151,0.137,0.217,0.206,0.212,0.122,0.078,�k�k��,5.5,��
2023/12/01,19:50,0.150,0.137,0.216,0.204,0.211,0.122,0.079,�k�k��,6.0,��
2023/12/01,20:00,0.151,0.136,0.216,0.206,0.210,0.121,0.079,�k�k��,5.3,��
2023/12/01,20:10,0.151,0.137,0.217,0.206,0.211,0.121,0.079,�k�k��,5.7,��
2023/12/01,20:20,0.152,0.136,0.217,0.205,0.211,0.121,0.079,�k�k��,4.3,��
2023/12/01,20:30,0.151,0.136,0.217,0.206,0.211,0.122,0.079,�k�k��,4.6,��
2023/12/01,20:40,0.151,0.136,0.217,0.205,0.210,0.121,0.078,�k�k��,5.9,��
2023/12/01,20:50,0.151,0.138,0.217,0.206,0.211,0.121,0.079,�k�k��,4.9,��
2023/12/01,21:00,0.151,0.137,0.217,0.207,0.210,0.122,0.079,�k�k��,4.5,��
2023/12/01,21:10,0.151,0.136,0.217,0.206,0.210,0.122,0.079,�k�k��,5.1,��
2023/12/01,21:20,0.152,0.138,0.216,0.206,0.210,0.122,0.078,�k�k��,6.2,��
2023/12/01,21:30,0.152,0.137,0.217,0.206,0.209,0.121,0.078,�k�k��,6.3,��
2023/12/01,21:40,0.151,0.136,0.216,0.206,0.211,0.121,0.079,�k�k��,5.9,��
2023/12/01,21:50,0.151,0.137,0.216,0.206,0.210,0.121,0.078,�k�k��,5.8,��
2023/12/01,22:00,0.151,0.137,0.217,0.206,0.211,0.121,0.079,�k�k��,7.0,��
2023/12/01,22:10,0.152,0.137,0.217,0.205,0.212,0.121,0.079,�k�k��,6.7,��
2023/12/01,22:20,0.151,0.138,0.217,0.205,0.211,0.121,0.078,�k�k��,5.9,��
2023/12/01,22:30,0.152,0.136,0.218,0.206,0.211,0.122,0.079,�k�k��,6.4,��
2023/12/01,22:40,0.151,0.138,0.217,0.206,0.210,0.121,0.079,�k�k��,6.1,��
2023/12/01,22:50,0.152,0.137,0.217,0.206,0.211,0.122,0.078,�k�k��,5.9,��
2023/12/01,23:00,0.151,0.137,0.217,0.206,0.211,0.122,0.079,�k�k��,6.4,��
2023/12/01,23:10,0.152,0.136,0.217,0.205,0.211,0.122,0.080,�k�k��,7.0,��
2023/12/01,23:20,0.152,0.137,0.217,0.207,0.211,0.122,0.079,�k�k��,6.6,��
2023/12/01,23:30,0.152,0.137,0.218,0.206,0.211,0.121,0.079,�k�k��,5.8,��
2023/12/01,23:40,0.152,0.137,0.218,0.207,0.212,0.122,0.079,�k�k��,4.1,��
2023/12/01,23:50,0.151,0.137,0.217,0.205,0.211,0.122,0.079,�k�k��,4.5,��
